Weather History for Ozona, TX

Change the Weather History Date:

Tuesday, July 16, 2013

  Actual Average Record
Temperature  
Mean Temperature 71 °F -  
Max Temperature 78 °F 93 °F 99 °F (2011)
Min Temperature 64 °F 69 °F 64 °F (2013)
Cooling Degree Days 6    
Growing Degree Days 21 (Base 50)    
Moisture  
Dew Point 66 °F    
Average Humidity 90    
Maximum Humidity 100    
Minimum Humidity 61    
Precipitation  
Precipitation 0.99 in - - ()
Sea Level Pressure  
Sea Level Pressure 30.13 in    
Wind  
Wind Speed - (North)    
Max Wind Speed -    
Max Gust Speed -    
Visibility 9 miles    
Events Rain    
Averages and records for this station are not official NWS values.
T = Trace of Precipitation, MM = Missing Value Source: NWS Daily Summary

Daily Weather History Graph

Daily Weather History Graph

Search for Another Location

Airport:

Trip Planner

Search our weather history database for the weather conditions in past years. The results will help you decide how hot, cold, wet, or windy it might be!

Date:

Astronomy

Jul. 16, 2013 Rise Set
Actual Time 6:53 AM CDT 8:48 PM CDT
Civil Twilight 6:25 AM CDT 9:15 PM CDT
Nautical Twilight 5:53 AM CDT 9:48 PM CDT
Astronomical Twilight 5:18 AM CDT 10:23 PM CDT
Moon 2:41 PM CDT (7/16) 1:12 AM CDT (7/16)
Length of Visible Light 14h 49m
Length of Day
13h 55m
First Quarter, 56% of the Moon is Illuminated
Jul 16
First Quarter
Jul 22
Full
Jul 29
Last Quarter
Aug 6
New
Aug 14
First Quarter

Hourly Weather History & Observations

Time (CDT) Temp. Dew Point Humidity Pressure Visibility Wind Dir Wind Speed Gust Speed Precip Events Conditions
12:15 AM 66.2 °F 64.4 °F 94% 30.11 in 10.0 mi North - - N/A   Clear
12:35 AM 66.2 °F 62.6 °F 88% 30.11 in 10.0 mi North - - N/A   Clear
12:55 AM 66.2 °F 62.6 °F 88% 30.11 in 10.0 mi North - - N/A   Scattered Clouds
1:15 AM 66.2 °F 62.6 °F 88% 30.11 in 10.0 mi North - - N/A   Mostly Cloudy
1:35 AM 66.2 °F 62.6 °F 88% 30.11 in 10.0 mi North - - N/A   Drizzle
1:55 AM 66.2 °F 62.6 °F 88% 30.11 in 5.0 mi North - - 0.04 in Rain Heavy Rain
2:15 AM 66.2 °F 64.4 °F 94% 30.10 in 5.0 mi North - - 0.05 in Rain Rain
2:35 AM 64.4 °F 64.4 °F 100% 30.10 in 10.0 mi North - - 0.07 in Rain Rain
2:55 AM 64.4 °F 64.4 °F 100% 30.10 in 7.0 mi North - - 0.15 in Rain Rain
3:15 AM 64.4 °F 64.4 °F 100% 30.09 in 10.0 mi North - - 0.01 in Rain Rain
3:35 AM 66.2 °F 64.4 °F 94% 30.09 in 10.0 mi North - - 0.02 in   Light Drizzle
3:55 AM 66.2 °F 64.4 °F 94% 30.09 in 10.0 mi North - - 0.02 in   Light Drizzle
4:15 AM 66.2 °F 64.4 °F 94% 30.08 in 7.0 mi North - - N/A   Heavy Drizzle
4:35 AM 66.2 °F 64.4 °F 94% 30.08 in 4.0 mi North - - 0.04 in Rain Heavy Rain
4:55 AM 66.2 °F 64.4 °F 94% 30.09 in 4.0 mi North - - 0.15 in Rain Rain
5:15 AM 66.2 °F 64.4 °F 94% 30.08 in 5.0 mi North - - 0.06 in Rain Rain
5:35 AM 66.2 °F 64.4 °F 94% 30.08 in 3.0 mi North - - 0.13 in Rain Heavy Rain
5:55 AM 66.2 °F 64.4 °F 94% 30.08 in 7.0 mi North - - 0.17 in Rain Rain
6:15 AM 66.2 °F 64.4 °F 94% 30.08 in 7.0 mi North - - 0.02 in Rain Rain
6:35 AM 68.0 °F 64.4 °F 88% 30.09 in 10.0 mi North - - 0.04 in Rain Rain
6:55 AM 68.0 °F 66.2 °F 94% 30.10 in 7.0 mi North - - 0.06 in Rain Rain
7:15 AM 68.0 °F 64.4 °F 88% 30.10 in 10.0 mi North - - N/A   Mostly Cloudy
7:35 AM 68.0 °F 64.4 °F 88% 30.10 in 4.0 mi North - - 0.09 in Rain Heavy Rain
7:55 AM 68.0 °F 66.2 °F 94% 30.11 in 5.0 mi North - - 0.14 in Rain Rain
8:15 AM 68.0 °F 68.0 °F 100% 30.12 in 10.0 mi North - - 0.01 in Rain Light Rain
8:35 AM 69.8 °F 68.0 °F 94% 30.13 in 10.0 mi North - - 0.01 in   Drizzle
8:55 AM 69.8 °F 68.0 °F 94% 30.13 in 10.0 mi North - - 0.01 in   Scattered Clouds
9:15 AM 69.8 °F 68.0 °F 94% 30.14 in 10.0 mi North - - N/A   Clear
9:35 AM 69.8 °F 68.0 °F 94% 30.15 in 10.0 mi North - - N/A   Scattered Clouds
9:55 AM 69.8 °F 68.0 °F 94% 30.15 in 10.0 mi North - - 0.01 in Rain Rain
10:15 AM 69.8 °F 68.0 °F 94% 30.15 in 7.0 mi North - - 0.02 in Rain Rain
10:55 AM 68.0 °F 66.2 °F 94% 30.16 in 10.0 mi North - - 0.03 in   Overcast
11:15 AM 68.0 °F 66.2 °F 94% 30.16 in 10.0 mi North - - N/A   Overcast
11:35 AM 69.8 °F 68.0 °F 94% 30.16 in 10.0 mi North - - N/A Rain Light Rain
11:55 AM 68.0 °F 64.4 °F 88% 30.17 in 1.0 mi North - - 0.13 in Rain Heavy Rain
12:15 PM 69.8 °F 68.0 °F 94% 30.16 in 10.0 mi North - - N/A   Scattered Clouds
12:35 PM 71.6 °F 68.0 °F 88% 30.16 in 10.0 mi North - - N/A   Clear
12:55 PM 73.4 °F 69.8 °F 88% 30.15 in 10.0 mi North - - N/A   Scattered Clouds
1:15 PM 75.2 °F 68.0 °F 78% 30.15 in 10.0 mi North - - N/A   Mostly Cloudy
1:35 PM 78.8 °F 66.2 °F 65% 30.15 in 10.0 mi North - - N/A   Mostly Cloudy
1:55 PM 78.8 °F 66.2 °F 65% 30.15 in 10.0 mi North - - N/A   Mostly Cloudy
2:35 PM 78.8 °F 64.4 °F 61% 30.14 in 10.0 mi North - - N/A   Scattered Clouds
4:35 PM 69.8 °F 64.4 °F 83% 30.13 in 10.0 mi North - - 0.02 in Rain Light Rain
4:55 PM 69.8 °F 66.2 °F 88% 30.13 in 10.0 mi North - - 0.02 in   Clear
5:15 PM 71.6 °F 68.0 °F 88% 30.13 in 10.0 mi North - - N/A   Clear
5:35 PM 73.4 °F 68.0 °F 83% 30.13 in 10.0 mi North - - N/A   Clear
5:55 PM 73.4 °F 68.0 °F 83% 30.14 in 10.0 mi North - - N/A   Clear
6:15 PM 73.4 °F 68.0 °F 83% 30.14 in 10.0 mi North - - N/A   Clear
6:35 PM 73.4 °F 68.0 °F 83% 30.14 in 10.0 mi North - - N/A   Clear
6:55 PM 73.4 °F 66.2 °F 78% 30.14 in 10.0 mi North - - N/A   Clear
7:15 PM 73.4 °F 66.2 °F 78% 30.14 in 10.0 mi North - - N/A   Clear
7:35 PM 73.4 °F 68.0 °F 83% 30.15 in 4.0 mi North - - 0.02 in Rain Heavy Rain
7:55 PM 71.6 °F 68.0 °F 88% 30.16 in 7.0 mi North - - 0.06 in Rain Light Rain
8:15 PM 69.8 °F 68.0 °F 94% 30.16 in 10.0 mi North - - N/A   Scattered Clouds
8:35 PM 69.8 °F 68.0 °F 94% 30.16 in 10.0 mi North - - N/A   Scattered Clouds
8:55 PM 69.8 °F 68.0 °F 94% 30.17 in 10.0 mi North - - N/A   Scattered Clouds
9:15 PM 69.8 °F 68.0 °F 94% 30.17 in 10.0 mi North - - N/A   Clear
9:35 PM 69.8 °F 68.0 °F 94% 30.17 in 10.0 mi North - - N/A   Clear
9:55 PM 69.8 °F 68.0 °F 94% 30.17 in 10.0 mi North - - N/A   Clear
10:15 PM 69.8 °F 68.0 °F 94% 30.19 in 10.0 mi North - - N/A   Scattered Clouds
10:35 PM 69.8 °F 68.0 °F 94% 30.20 in 10.0 mi North - - N/A Rain Light Rain
10:55 PM 69.8 °F 68.0 °F 94% 30.21 in 10.0 mi North - - N/A Rain Light Rain
11:15 PM 69.8 °F 66.2 °F 88% 30.22 in 10.0 mi North - - N/A Rain Light Rain
11:35 PM 69.8 °F 66.2 °F 88% 30.22 in 10.0 mi North - - N/A   Clear
11:55 PM 69.8 °F 66.2 °F 88% 30.22 in 10.0 mi North - - N/A   Clear